Location: Clarion
(42.7316°N, 93.7330°W)
Time: 09:36:30
(UTC+00:00)

Iridium 4 Rocket - Pass Details

Date: 22 April 2026
Orbit: 581 x 884 km, 86.9° (Epoch: 17 May)

Event Time Altitude Azimuth Distance (km) Brightness Sun altitude
Exits shadow 08:41:06 57° 129° (SE) 811 3.5 -25.5°
Maximum altitude 08:41:44 64° 88° (E) 770 3.6 -25.4°
Drops below altitude 10° 08:46:41 10° 8° (N) 2,258 6.7 -24.8°
Sets 08:49:08 0° 6° (N) 3,237 7.5 -24.5°
